Regional Weather Roundup
Issued by NWS

Home | Current Version | Previous Version | Graphics & Text | Print | Product List | Glossary On
Versions: 1 2 3 4 5 6 7 8 9 10 11 12 13 14 15 16 17 18 19 20 21 22 23 24 25 26 27 28 29 30 31 32 33 34 35 36 37 38 39 40 41 42 43 44 45 46 47 48 49 50
000
ASUS43 KLOT 260806
RWRIL

ILLINOIS REGIONAL WEATHER ROUNDUP
NATIONAL WEATHER SERVICE CHICAGO/ROMEOVILLE IL
200 AM CST FRI DEC 26 2014

NOTE: "FAIR" INDICATES FEW OR NO CLOUDS BELOW 12,000 FEET WITH NO
SIGNIFICANT WEATHER AND/OR OBSTRUCTIONS TO VISIBILITY.

* THESE STATIONS ARE NOT UNDER NWS QUALITY CONTROL. THEY ALSO MAY NOT
  REPORT WEATHER SUCH AS PRECIPITATION OR FOG.

ILZ001-002-007-009-015-016-024-260900-
NORTHWEST ILLINOIS

CITY           SKY/WX    TMP DP  RH WIND       PRES   REMARKS
MOLINE         CLOUDY    43  33  68 S15G26    29.90S
STERLING*      CLOUDY    41  34  75 S5        29.94S
SAVANNA*       CLOUDY    40  34  79 S9        29.91S
$$

ILZ003-004-008-010-011-017-018-260900-
NORTH CENTRAL ILLINOIS

CITY           SKY/WX    TMP DP  RH WIND       PRES   REMARKS
ROCKFORD       CLOUDY    38  33  82 S13       29.96S WCI  30
FREEPORT*      CLOUDY    37  34  88 S15       29.94R WCI  28
ROCHELLE*      CLOUDY    36  34  92 S8        29.96S WCI  30
DE KALB*       CLOUDY    35  33  92 S13       29.98S WCI  26
PERU*          PTCLDY    38  35  87 S16       29.98S WCI  29
$$

ILZ005-006-012>014-019>023-260900-
NORTHEAST ILLINOIS

CITY           SKY/WX    TMP DP  RH WIND       PRES   REMARKS
CHICAGO-OHARE  CLOUDY    38  32  79 S12       30.00S WCI  30
CHICAGO-MIDWAY MOCLDY    39  33  79 S12       30.01F WCI  32
AURORA         MOCLDY    35  31  85 S8        29.99S WCI  29
LANSING*       PTCLDY    36  32  87 S10       30.04S WCI  28
JOLIET*        PTCLDY    35  32  90 S5        30.01F WCI  31
WAUKEGAN       CLOUDY    39  33  79 S17       29.97S WCI  30
DUPAGE AIRPORT MOCLDY    36  32  85 S13       29.98F WCI  27
KANKAKEE*      CLEAR     35  32  90 S12       30.04S WCI  26
WHEELING       CLOUDY    39  33  79 S12       30.01S WCI  32
MORRIS*        PTCLDY    33  32  96 S6        30.00S WCI  28
ROMEOVILLE*    PTCLDY    34  32  93 S8        30.01S WCI  27
NORTHERLY ISL    N/A     39  32  76 SW13        N/A  WCI  31
$$

LMZ740>746-260900-
SOUTHERN LAKE MICHIGAN

STATION/POSITION SKY/WX   TEMP    WIND        PRES    VSBY  WAVE
                          AIR SEA DIR/SP/G                  HT/PER
                          (F)     (DEG/KT/KT) (MB)    (MI)  (FT/S)
WAUKEGAN HARBOR            40                   N/A
HARRISON CRIB              39     190/ 23/ 27   N/A
BURNHAM HARBOR             39     210/ 11/ 16   N/A
CALUMET HARBOR             38     180/ 10/ 13 1015.4F
MICHIGAN CITY              37     150/ 15/ 18   N/A
$$

ILZ025>027-034>036-040-047-049-050-058-095>099-260900-
WEST-CENTRAL ILLINOIS

CITY           SKY/WX    TMP DP  RH WIND       PRES   REMARKS
QUINCY         CLEAR     38  32  79 S9        29.95R WCI  31
GALESBURG*     PTCLDY    40  35  81 S13G21    29.94S
MACOMB*        CLEAR     37  35  90 S12       29.97S WCI  30
JACKSONVILLE*  CLEAR     41  36  83 S10G16    30.01R
PITTSFIELD*    CLEAR     39  35  84 SE10      29.99R WCI  32
$$

ILZ028>032-037-038-041>044-048-051>054-059>061-260900-
CENTRAL ILLINOIS

CITY           SKY/WX    TMP DP  RH WIND       PRES   REMARKS
PONTIAC        CLEAR     37  33  89 S10       30.03R WCI  29
BLOOMINGTON    CLEAR     34  32  92 S14       30.03S WCI  25
DECATUR        CLEAR     37  32  82 S14       30.06S WCI  28
PEORIA         CLEAR     38  33  82 S13       29.99R WCI  30
LACON*         CLEAR     39  34  80 S8G16     29.98R WCI  34
LINCOLN*       CLEAR     38  34  84 S10       30.03R WCI  31
SPRINGFIELD    CLEAR     40  34  79 S15G23    30.03R
TAYLORVILLE    CLEAR     37  32  81 S14G20    30.05R WCI  29
$$

ILZ033-039-045-046-055>057-062-063-260900-
EAST-CENTRAL ILLINOIS

CITY           SKY/WX    TMP DP  RH WIND       PRES   REMARKS
CHAMPAIGN      CLEAR     35  31  85 S13       30.07R WCI  26
DANVILLE*      CLEAR     36  32  85 S10G16    30.06S WCI  29
RANTOUL*       CLEAR     34  32  94 SE8       30.06S WCI  27
MATTOON        CLEAR     38  33  82 S12G21    30.08R WCI  30
PARIS*         CLEAR     35  33  92 S10       30.11R WCI  28
$$

ILZ079-100>102-260900-
SOUTHWEST ILLINOIS

CITY           SKY/WX    TMP DP  RH WIND       PRES   REMARKS
ALTON          CLEAR     35  33  91 SE8       30.06R WCI  29
BELLEVILLE     PTCLDY    38  36  93 SE8       30.07R WCI  32
CAHOKIA*       PTCLDY    40  35  83 SE6       30.06R
SPARTA*        PTCLDY    42  34  74 S12G21    30.10R
$$

ILZ064>066-069>071-074>076-080>082-084>086-088>090-092>094-260900-
SOUTH-CENTRAL ILLINOIS

CITY           SKY/WX    TMP DP  RH WIND       PRES   REMARKS
CARBONDALE     MOCLDY    43  33  68 S7G16     30.12R
CAIRO*         CLEAR     43  36  74 S9        30.15R
EFFINGHAM*     CLEAR     38  31  74 SE7       30.13R WCI  33
MARION         PTCLDY    43  36  75 S12       30.14R
MT. VERNON     MOCLDY    39  32  75 S8        30.13R WCI  34
CENTRALIA*     PTCLDY    38  32  78 S6        30.11R WCI  34
SALEM*         PTCLDY    41  34  75 S6        30.12R
METROPOLIS*    CLEAR     42  36  78 S6        30.16R
$$

ILZ067-068-072-073-078-083-087-091-260900-
SOUTHEAST ILLINOIS

CITY           SKY/WX    TMP DP  RH WIND       PRES   REMARKS
LAWRENCEVILLE  PTCLDY    36  33  89 S9        30.16R WCI  29
FLORA*         PTCLDY    37  33  85 S8        30.14R WCI  31
FAIRFIELD*     MOCLDY    40  35  82 S7        30.13R
HARRISBURG*    MOCLDY    42  35  75 S9        30.16R
ROBINSON*      PTCLDY    35  32  89 S7        30.16R WCI  29
CARMI*         MOCLDY    37  35  95 SE3       30.15R
$$

ABBREVIATIONS USED IN REMARKS
   TC - TEMPERATURE IN CELSIUS
  WCI - WIND CHILL INDEX
   HX - HEAT INDEX
  VSB - VISIBILITY
$$



USA.gov is the U.S. government's official web portal to all federal, state and local government web resources and services.